Ana Sayfa
METAR-TAF:

METAR-TAF

Havaalanları :

Perryton Ochiltree County Airport

Perryton, Teksas, Amerika Birleşik Devletleri

Enlem: 36-24N, Boylam: 100-44W, yükseklik: 890 m

Güncel hava durumu gözlemi

Rapor saat 10:15 UTC de 15 dakika önce yapıldı.
Rüzgar batıdan 5 kt
Sıcaklık -2°C
Nem 86%
Basınç 1025 hPa
Görüş mesafesi: 16.1 km
Açık gökyüzü

METAR: KPYX 281015Z AUTO 26005KT 10SM CLR M02/M04 A3028 RMK AO2 T10241038

Saat: 04:30 (10:30 UTC)


TAF: eksik

4.000'den fazla havaalanı için hava durumu gözlemleri ve tahminleri (METAR ve TAF raporları).

Kullanılabilir istasyonlar harita üzerinde sarı ve kırmızı noktalarla gösterilir.

İstasyonun adını görmek için fareyi noktanın üzerinde gezdirin.

Sonrasında hava gözlem ve tahminlerini görmek için tıklayın.

Haritayı değiştirmek için: yaklaştırmak için siyah artı işaretli yeşil düğmeye ve uzaklaştırmak için de eksi işaretli düğmeye hızla tıklayın; bitişik haritalar için yeşil okları kullanın.


METAR-TAF: